Wind_Speed
24 23 24 23 23 22 21 20 19 19 18 18 18 18 19 20 20 21 20 19 17 16 16 17 18 18 18 18 17 16 15 14 13 12 12 12 13 13 13 13 13 12 11 10 8 7 7 6 5 4 4 3 3 3 2 2 2 3 4 5 5 5 6 5 4 3 3 4 3 3 3 2 2 3 5 6 7 6 5 5 5 5 4 4 5
25 25 25 24 24 23 22 21 20 20 19 19 19 19 21 21 20 21 20 19 18 17 16 17 18 19 19 18 17 16 15 14 14 13 11 12 13 13 13 13 13 12 11 10 8 7 6 6 5 5 5 4 3 3 2 2 3 4 5 5 5 5 6 5 4 3 3 3 3 3 3 2 2 2 4 6 7 7 6 6 5 5 5 5 5
26 26 25 25 24 23 23 22 21 20 20 20 20 21 22 22 21 21 20 19 19 18 17 17 18 19 19 18 18 17 16 15 14 13 12 12 12 13 13 13 13 12 11 10 8 7 7 6 6 6 5 5 4 3 3 3 3 4 5 5 5 5 6 6 5 4 3 3 3 3 3 2 2 2 4 6 7 7 7 7 6 6 5 5 5
27 26 26 25 25 24 24 23 22 22 21 21 21 22 23 23 22 21 21 20 19 18 18 17 18 19 19 19 18 18 17 15 14 14 13 12 12 13 13 13 13 12 11 10 8 7 7 6 6 6 6 5 4 3 3 3 4 5 5 5 5 5 6 6 5 4 3 3 2 2 2 2 1 2 3 5 7 7 7 7 7 6 6 5 5
27 26 26 26 26 26 25 25 24 24 23 23 23 23 23 24 23 22 22 21 20 19 18 18 19 19 19 20 20 19 17 16 15 14 13 13 12 13 13 13 13 12 11 10 9 8 7 7 7 7 6 5 5 4 4 4 5 5 5 5 5 5 5 5 5 4 4 3 2 2 2 1 1 1 2 4 7 7 7 7 7 7 6 6 5
27 27 27 27 27 27 27 27 27 26 25 24 24 25 25 25 24 23 23 22 20 19 19 19 19 20 21 21 20 19 17 16 15 14 14 14 13 12 13 13 12 12 12 10 9 9 8 8 8 8 7 6 5 5 5 5 5 5 5 5 5 5 5 5 5 5 4 3 2 2 2 1 1 1 2 4 6 7 7 7 7 7 7 6 6
29 29 29 28 29 29 29 29 28 27 27 27 27 26 26 25 25 25 24 22 19 18 19 21 22 22 22 22 21 19 17 16 15 14 14 14 13 12 13 13 12 12 12 10 10 9 9 9 9 9 7 6 6 6 6 6 5 5 5 5 5 5 5 5 5 4 4 3 2 2 2 1 1 1 2 3 5 7 7 7 7 7 7 7 6
30 30 30 30 30 30 30 30 29 29 28 28 28 27 27 26 26 26 25 22 19 17 19 22 24 24 24 23 22 20 18 17 16 16 15 14 13 12 12 12 12 12 12 10 10 10 10 9 9 9 8 7 7 7 8 7 6 6 6 6 5 5 5 5 5 4 4 3 2 1 1 1 1 1 2 3 4 6 8 8 7 8 8 7 7
31 31 31 31 31 30 30 30 29 29 29 29 28 28 28 28 27 26 25 23 20 18 19 23 25 25 25 24 23 21 19 18 17 17 15 14 13 12 12 12 12 12 11 10 11 11 11 10 10 10 9 8 8 9 9 8 7 6 6 6 6 5 5 5 5 4 4 3 2 1 1 2 2 1 2 2 4 6 8 8 8 8 8 8 8
32 31 31 32 31 31 31 30 29 29 29 29 29 29 29 29 29 27 25 25 22 20 21 25 27 26 25 25 23 21 19 18 18 17 15 14 13 12 12 12 12 11 11 11 11 11 11 11 10 11 10 10 10 11 10 10 8 7 7 7 6 6 6 5 4 4 4 3 2 1 1 2 2 2 2 2 3 5 7 8 8 8 8 8 8
32 32 32 33 32 32 31 30 29 30 30 30 31 30 30 29 29 28 26 26 24 22 24 26 27 26 25 24 23 22 20 19 19 17 15 13 12 12 12 12 12 11 11 11 11 11 11 11 11 11 11 11 12 12 11 11 9 8 8 8 7 7 6 6 5 4 4 3 2 1 2 3 3 2 2 2 3 5 7 8 9 9 9 9 8
32 33 33 33 32 31 31 30 30 31 31 31 30 29 29 27 26 25 25 26 25 24 25 27 28 27 26 24 22 22 22 21 19 16 13 12 12 12 12 12 12 11 11 12 13 12 11 11 11 12 12 13 13 13 13 12 11 9 9 9 9 7 7 6 5 5 4 3 2 1 2 3 4 3 3 3 3 4 6 8 9 9 9 9 9
33 33 32 31 30 30 30 30 30 30 30 30 30 29 27 23 22 22 22 24 25 25 26 28 29 29 27 24 22 22 22 21 19 16 13 12 13 12 12 12 12 12 12 12 13 13 13 12 12 13 13 14 14 14 14 13 12 11 11 11 10 9 8 7 6 6 5 4 3 2 2 3 4 4 4 3 3 3 5 7 9 9 9 9 8
32 32 32 30 30 30 30 30 30 30 29 29 29 28 25 24 24 23 23 23 23 24 26 29 32 31 26 22 21 21 21 20 19 17 15 13 13 13 12 12 12 13 13 13 14 14 14 13 13 14 14 14 15 15 15 15 14 12 12 12 11 10 9 8 8 7 6 5 5 3 2 3 3 5 5 4 3 3 4 6 8 9 9 9 9
31 31 31 30 30 31 30 31 30 29 30 30 29 27 26 26 25 25 25 24 23 24 25 29 33 31 26 22 20 19 20 19 17 16 16 14 14 14 14 13 13 13 14 15 15 15 15 14 15 15 15 15 16 16 17 16 15 14 14 14 13 12 11 10 9 8 8 7 6 5 3 3 3 5 6 6 5 4 4 5 7 8 9 9 9
31 30 30 31 31 31 31 31 31 30 30 30 29 28 28 27 26 26 25 24 23 23 25 28 32 29 24 20 19 20 21 20 18 17 17 17 17 16 15 14 14 14 15 15 16 16 16 15 16 16 16 16 16 17 18 18 16 16 15 15 15 14 13 12 11 10 9 8 8 6 5 4 3 4 6 7 6 5 5 5 6 7 9 10 10
32 31 31 32 32 32 32 32 30 29 28 27 27 27 28 26 26 25 24 23 23 24 26 28 30 28 23 19 20 21 20 20 20 20 20 19 18 17 16 15 15 15 16 16 16 17 16 16 17 17 17 17 17 18 19 19 18 17 17 16 16 16 15 14 13 12 11 10 9 8 7 5 4 4 5 7 7 7 6 6 6 7 8 9 10
32 31 31 32 32 31 30 29 27 25 22 22 23 24 24 24 24 23 22 22 22 24 28 30 31 28 23 21 21 20 20 21 21 21 20 20 19 18 17 16 16 16 16 17 17 17 17 17 18 19 18 18 18 18 19 20 19 19 18 17 17 17 16 16 15 13 12 12 11 10 9 7 6 5 5 6 8 8 7 7 6 7 7 9 10
32 31 32 32 33 30 27 25 24 22 19 19 21 22 23 22 21 20 20 21 21 24 29 33 31 25 22 21 20 19 20 21 21 21 20 20 20 19 18 17 17 17 17 17 17 17 18 18 18 19 19 18 18 19 19 21 21 20 19 19 18 18 18 18 17 15 14 13 13 12 11 10 8 7 6 6 7 8 8 8 7 7 8 8 9
32 32 32 32 32 29 26 25 23 21 19 18 20 22 23 21 19 19 18 20 22 25 27 28 25 21 20 19 18 20 21 21 21 21 20 21 20 19 18 18 18 17 17 17 17 18 18 18 18 18 19 18 18 19 20 21 22 21 21 20 20 20 20 20 19 17 16 15 14 14 13 12 11 9 8 8 8 8 9 9 9 8 8 8 9
32 33 33 32 30 28 28 27 24 22 21 20 20 21 22 20 19 20 19 19 20 20 18 19 20 19 18 18 19 21 21 21 21 21 22 22 20 19 19 18 18 18 17 17 17 18 18 19 19 18 18 18 18 18 20 21 22 23 22 22 22 21 21 20 20 19 19 17 16 16 15 14 13 12 11 10 9 9 9 10 10 9 9 9 9
33 33 32 30 29 27 27 28 27 25 22 20 18 17 20 21 21 22 20 18 17 16 16 18 19 18 17 18 20 21 21 21 21 23 23 21 20 19 20 19 18 18 18 18 18 18 19 19 19 18 18 17 17 18 20 21 22 23 24 24 24 23 22 21 21 21 20 20 18 18 18 16 15 14 13 12 11 10 10 10 10 11 10 10 9
32 32 30 28 28 28 28 27 24 21 18 16 14 14 17 19 20 20 18 17 16 17 19 19 18 17 18 19 20 21 21 21 23 24 22 21 20 20 20 19 19 19 18 18 18 19 19 19 19 18 18 18 18 18 19 21 22 23 24 26 25 24 23 22 22 22 22 21 20 20 20 19 18 16 15 14 13 12 11 11 11 11 11 11 10
30 29 27 27 27 25 21 17 15 15 16 14 13 15 15 14 16 16 16 17 18 18 18 17 17 18 19 19 20 21 21 23 24 23 22 21 20 20 19 19 19 19 19 19 19 19 19 19 18 18 18 18 18 19 19 20 22 23 25 26 25 24 24 23 23 23 23 23 22 22 22 21 20 19 18 16 15 14 13 12 12 12 12 12 12
27 26 24 23 26 23 14 9 10 12 15 14 12 14 15 14 16 17 19 21 20 19 17 17 18 19 19 20 21 21 23 24 23 22 22 21 21 21 19 19 19 19 18 19 18 19 19 19 19 19 18 19 19 19 19 20 21 23 24 25 25 24 24 25 25 25 25 25 24 24 24 23 22 21 20 19 17 16 15 15 14 13 13 13 13
25 22 17 15 21 21 13 8 8 10 13 13 13 14 15 15 19 22 23 23 22 20 19 19 20 20 20 21 21 23 24 24 22 22 22 21 21 20 19 19 20 19 19 18 18 18 19 19 19 19 19 19 19 19 20 20 20 22 23 24 24 24 25 26 26 26 26 26 26 25 26 25 24 23 22 21 20 18 17 17 16 15 14 14 14
22 19 14 13 17 15 10 6 8 13 13 13 15 14 15 17 20 22 22 22 22 21 21 21 21 21 21 21 23 24 25 24 23 22 22 21 19 19 20 20 20 19 18 18 18 18 18 18 18 18 19 19 19 19 20 20 21 22 23 23 23 24 25 26 26 26 26 26 26 26 27 27 26 25 24 24 22 20 19 18 18 17 16 16 15
20 19 17 19 20 15 11 6 7 13 14 16 19 18 17 18 20 21 21 21 21 22 21 21 21 21 21 22 24 24 24 24 23 22 20 19 19 19 19 19 19 18 17 18 18 18 18 17 17 17 18 18 18 19 20 21 22 23 23 24 24 25 25 25 25 25 25 25 25 25 27 27 27 26 26 25 24 22 21 20 19 19 18 18 17
19 18 18 20 20 18 15 9 6 10 14 18 19 19 18 18 20 20 20 20 21 21 20 21 21 21 22 23 23 22 23 24 22 20 19 19 19 19 18 18 18 17 17 18 18 18 17 16 16 16 16 17 18 19 20 21 23 24 24 25 25 25 26 26 25 26 26 26 26 25 25 27 28 27 27 26 25 24 23 22 21 20 20 19 19
17 16 16 17 18 18 18 14 10 10 14 17 18 18 18 18 19 18 19 20 20 20 20 20 21 22 22 22 21 21 23 23 19 18 19 19 18 18 18 17 17 16 17 17 17 17 16 16 15 15 16 16 18 19 20 21 22 24 25 25 25 25 25 26 26 27 28 28 27 26 25 26 28 28 27 26 25 24 24 24 23 22 21 21 20
16 16 15 15 16 18 18 15 14 13 15 16 18 18 18 18 18 18 20 20 19 19 19 21 21 21 20 20 20 20 22 21 18 17 17 17 17 18 18 18 16 16 16 16 16 16 16 16 16 16 16 16 17 18 18 20 21 22 23 24 25 25 25 26 26 26 27 27 27 26 25 26 29 29 27 25 25 24 24 24 24 24 23 22 21
13 14 15 15 15 17 16 15 14 15 16 17 18 17 17 17 17 18 19 19 18 18 19 19 19 19 19 19 19 20 21 19 16 16 15 15 16 17 16 16 15 15 15 15 15 15 15 15 16 16 16 16 17 16 17 18 19 20 21 23 24 25 25 25 25 25 25 25 25 26 25 24 26 28 26 25 24 24 24 24 25 26 25 23 23
9 11 13 14 15 16 16 15 14 14 14 16 16 16 16 16 17 18 18 18 17 17 17 17 17 17 17 17 17 18 19 17 15 14 15 15 14 14 13 13 13 13 13 13 13 14 14 15 15 15 15 16 16 16 16 17 18 18 20 21 22 22 23 23 24 24 23 24 23 24 24 21 20 23 23 24 24 24 24 24 25 26 26 25 24
8 9 11 13 15 17 16 16 15 14 13 14 15 15 16 17 18 18 17 17 17 16 15 16 16 15 15 15 15 16 17 16 15 14 14 14 14 13 13 13 12 12 13 12 12 13 13 14 14 14 14 15 15 15 16 16 16 16 18 19 19 19 19 20 21 22 22 23 22 22 23 22 20 19 20 22 24 24 25 25 25 26 27 27 26
9 9 10 12 15 17 18 18 16 14 13 14 15 15 16 18 18 17 16 16 15 14 14 14 14 14 14 13 13 14 15 15 14 14 14 14 14 14 14 12 11 11 12 12 11 12 12 13 14 13 13 14 15 16 15 15 15 15 16 17 17 17 18 19 19 20 21 21 22 22 22 23 23 21 20 22 24 25 26 27 27 26 27 28 28
11 10 10 12 13 16 17 17 16 15 14 14 14 15 17 18 17 16 15 14 13 14 14 14 13 12 12 12 13 13 13 13 13 13 13 14 14 14 13 11 10 10 11 12 11 11 12 13 13 13 13 14 15 16 16 15 15 15 16 16 16 16 17 18 19 20 20 20 20 21 21 22 23 23 23 24 25 25 26 27 27 27 27 28 29
14 13 12 12 12 15 16 15 14 15 15 15 15 16 17 17 16 15 14 14 14 15 14 13 12 12 12 12 12 12 12 12 12 13 13 13 14 13 13 12 11 11 11 12 11 11 12 13 13 13 13 14 15 16 15 15 15 15 14 15 15 16 17 18 19 20 21 21 21 21 21 21 22 23 23 24 25 26 25 25 26 26 25 26 27
16 16 16 14 12 13 14 12 14 15 15 16 16 17 17 16 16 15 15 15 16 15 14 13 12 12 11 11 11 11 11 12 12 13 13 13 14 13 12 12 12 12 12 11 11 11 11 12 12 13 14 15 15 15 16 16 16 14 14 14 15 16 17 18 19 20 20 21 21 21 21 20 20 22 23 23 24 25 24 23 24 25 25 24 25
17 18 18 16 13 12 13 12 14 15 14 16 17 17 18 17 17 17 16 16 16 15 14 12 11 11 10 10 11 11 12 12 12 12 12 13 14 14 12 12 12 12 12 11 11 11 11 11 12 12 14 15 16 16 16 17 16 15 14 14 14 15 16 17 18 19 19 20 20 19 19 18 17 19 21 23 24 25 25 24 23 24 25 24 23
19 19 18 18 16 13 14 15 16 18 17 16 17 18 18 18 18 17 17 17 16 15 14 12 10 10 10 11 11 12 12 11 11 11 11 12 14 14 13 13 13 13 12 12 12 12 12 12 12 12 14 15 16 17 17 17 16 16 15 14 15 15 15 16 17 18 18 19 19 19 19 19 17 18 19 21 22 23 24 24 23 22 23 24 24
20 20 19 19 17 16 17 18 20 23 20 17 18 19 19 18 18 18 17 17 17 15 14 12 11 11 11 12 12 12 11 11 10 10 10 11 12 13 13 13 13 13 13 13 13 13 13 13 13 13 14 15 16 17 17 17 17 16 16 15 15 16 16 17 17 18 18 18 19 19 19 18 18 18 19 19 18 19 19 21 23 23 22 24 26
21 21 20 19 19 19 21 21 23 25 21 18 19 19 19 19 18 18 17 17 16 15 14 12 11 11 11 12 12 11 11 10 10 10 11 11 11 12 13 13 14 14 13 13 13 14 14 14 14 14 14 15 16 16 17 17 17 17 16 16 16 17 17 18 18 18 18 18 18 19 18 18 18 18 19 19 18 18 19 20 21 22 23 25 27
21 21 20 21 20 19 23 26 28 28 22 19 19 18 18 18 16 17 17 16 14 13 12 11 10 10 10 11 11 11 11 10 11 11 11 11 12 12 13 13 14 14 14 14 14 15 15 16 16 16 16 16 16 17 17 18 18 18 18 17 17 18 18 20 20 19 18 18 19 19 18 18 18 18 19 20 20 21 21 21 21 22 22 24 26
20 20 20 19 17 17 23 26 26 25 21 20 19 18 18 16 15 16 16 14 12 10 10 10 10 9 9 10 10 10 11 11 11 12 12 12 12 13 13 13 13 14 15 15 15 16 16 17 17 18 18 18 17 18 18 19 19 20 20 19 19 19 20 21 21 20 18 18 19 19 19 19 19 19 20 20 20 21 22 22 22 22 23 22 22
19 19 17 15 14 16 22 25 22 19 19 20 20 19 17 16 16 16 16 14 11 10 10 10 10 9 9 10 10 10 11 11 12 12 13 13 13 13 13 13 14 14 15 15 16 16 17 17 18 18 18 18 18 18 18 19 20 21 21 21 20 21 21 21 21 20 19 19 20 20 20 19 19 20 20 21 21 21 22 22 22 22 22 22 19
16 15 15 16 17 18 24 28 26 22 21 21 20 19 19 19 18 17 17 15 13 12 11 11 11 10 9 9 10 10 11 11 12 12 13 14 14 13 13 12 13 14 15 15 16 17 17 18 18 18 19 19 19 18 19 19 20 20 21 21 21 21 21 20 20 21 20 20 20 20 20 19 19 19 21 21 22 22 22 23 22 22 22 22 21
14 13 14 17 18 19 23 27 28 27 22 20 19 20 21 20 19 18 18 16 15 14 13 13 12 11 10 10 11 12 12 13 13 14 14 15 15 15 14 13 13 14 15 15 16 17 18 18 19 19 19 19 19 19 19 19 19 20 20 20 20 21 21 20 21 21 20 19 21 21 20 19 19 21 21 21 21 22 22 23 23 23 22 22 21
12 13 15 18 19 21 21 21 24 27 24 21 20 19 18 19 19 18 19 18 16 16 15 14 13 12 12 12 13 13 13 14 15 16 16 16 16 16 16 15 14 14 15 15 16 17 17 18 19 20 20 20 21 21 20 20 20 20 19 19 20 20 20 21 21 21 20 20 20 20 19 18 20 21 22 22 22 22 23 23 23 23 23 22 21
10 13 17 21 24 25 21 19 20 24 25 25 26 23 18 18 19 19 19 19 18 18 17 15 14 14 13 13 12 12 13 15 17 18 18 18 17 17 17 16 15 15 15 15 16 17 17 18 19 19 20 21 21 22 22 21 21 20 20 19 20 20 20 21 21 21 21 19 18 19 18 18 19 20 20 21 21 21 22 23 23 23 23 22 22
18 18 18 23 28 27 21 19 20 21 24 26 28 27 20 18 20 20 19 19 19 18 17 16 15 15 14 13 12 12 13 14 16 18 19 18 18 17 17 17 16 16 16 16 16 17 17 18 18 19 20 21 22 22 22 22 22 22 21 20 20 20 20 20 21 21 21 20 19 19 20 20 20 20 19 19 19 20 21 22 23 24 24 23 24
24 23 21 22 25 28 25 21 20 20 21 23 25 27 24 19 18 19 20 19 19 19 17 17 17 17 16 14 14 14 12 13 15 16 17 17 17 17 18 17 17 17 17 17 17 17 17 17 18 19 19 20 21 21 22 23 23 23 23 22 21 20 20 20 21 21 21 21 20 20 20 20 20 20 20 20 20 20 20 21 22 23 24 24 25
Wind_Direction
267 267 267 269 272 275 278 279 279 280 283 286 291 295 300 307 315 318 317 314 311 307 303 300 297 296 296 297 299 300 302 304 308 315 323 327 327 327 328 329 329 329 327 327 327 327 321 312 310 304 289 272 254 239 237 251 256 280 287 295 312 326 337 339 327 306 279 263 251 243 240 232 215 203 196 191 183 178 176 177 176 174 168 150 131
264 265 267 269 271 274 276 276 277 279 282 285 290 293 299 305 310 315 313 309 308 306 301 296 293 292 294 296 298 300 300 302 306 312 321 326 325 324 326 326 326 325 323 322 322 318 311 304 300 295 280 261 248 237 235 252 256 269 282 291 308 324 336 341 338 324 298 272 255 243 236 228 213 201 197 191 185 181 177 178 179 178 172 157 141
265 266 268 269 270 271 272 274 275 277 280 283 288 293 298 302 305 311 312 307 305 303 297 293 290 290 292 296 298 298 298 300 305 310 317 322 323 322 323 323 322 322 319 317 317 310 302 297 292 286 275 256 241 236 235 249 258 263 278 288 304 323 334 342 344 336 320 290 264 247 237 227 215 202 194 191 186 183 179 178 178 177 172 162 150
267 267 266 267 267 268 269 272 273 275 279 283 287 292 295 299 302 306 308 306 302 297 293 291 289 289 291 294 295 294 295 297 301 307 312 317 320 319 318 319 320 319 316 314 314 304 295 292 286 280 270 254 239 235 235 246 257 260 276 289 302 320 332 340 344 343 331 308 279 257 247 233 224 210 194 192 188 184 182 181 179 175 171 168 159
264 264 264 264 265 266 268 269 272 275 278 282 286 289 292 295 299 303 304 302 296 291 288 287 287 287 288 290 290 290 291 294 297 302 307 311 315 315 315 316 317 316 313 312 309 299 291 287 281 275 268 254 238 234 234 243 255 260 276 289 299 315 327 335 343 346 335 314 286 262 254 246 244 228 199 194 190 185 182 182 181 177 173 172 168
261 261 262 263 263 265 267 269 271 273 277 281 284 287 290 293 298 301 302 298 290 285 283 283 284 284 283 285 286 286 287 290 293 297 302 305 308 311 313 315 316 313 311 309 304 295 287 283 278 272 266 255 240 234 233 241 255 263 275 285 292 305 319 329 340 346 338 316 289 263 254 252 254 246 214 199 192 186 182 181 183 182 177 175 172
260 261 262 263 263 264 266 268 270 272 276 280 283 286 288 293 297 300 300 296 285 278 279 280 280 279 280 282 282 282 284 287 289 293 297 300 305 310 312 313 313 310 307 304 297 289 284 279 274 271 265 256 245 236 233 238 253 264 270 277 283 296 309 322 334 342 340 324 295 265 245 243 244 249 226 209 198 190 183 182 184 184 181 177 175
261 263 264 264 264 265 266 267 270 274 278 281 283 285 289 293 296 297 297 294 282 274 276 277 276 274 275 278 279 280 282 283 287 289 292 297 302 308 310 311 310 306 303 299 292 286 282 277 273 271 266 257 247 238 233 234 247 259 264 272 279 289 298 311 326 336 340 333 310 272 234 238 235 244 229 217 208 197 188 184 185 185 184 181 177
262 264 264 265 265 265 266 269 273 276 279 281 284 286 290 291 292 293 293 293 283 273 271 271 270 268 270 274 276 277 278 281 283 285 288 293 299 305 308 307 305 302 299 294 289 284 281 277 274 272 267 259 248 240 234 232 240 251 257 267 277 284 290 301 315 328 336 340 327 285 226 229 229 240 233 215 214 206 196 189 187 186 186 184 181
263 263 264 265 266 267 269 273 276 278 280 282 285 288 289 288 288 288 288 289 286 275 268 265 263 262 264 267 271 273 273 277 279 281 284 289 295 301 303 301 299 297 294 290 285 281 279 276 273 271 267 260 249 241 235 231 234 244 252 263 273 278 282 290 303 318 327 338 336 297 221 215 223 233 234 216 210 209 202 196 192 189 189 187 184
263 264 265 267 267 270 274 278 280 281 283 286 287 287 287 287 285 284 282 283 284 276 268 263 260 257 258 260 265 267 270 274 274 275 278 286 293 296 296 295 294 290 287 285 280 276 274 273 271 269 266 260 250 243 236 231 231 239 249 257 265 271 276 282 291 304 313 322 326 293 223 207 212 217 219 217 209 206 204 201 197 194 193 192 188
264 266 268 270 271 275 280 283 285 287 288 289 288 287 286 287 284 281 279 278 277 273 267 263 258 254 252 253 257 261 268 274 274 272 273 282 288 289 291 291 287 282 279 278 275 272 269 268 268 266 263 259 252 244 237 232 229 234 245 252 258 265 271 276 282 290 297 304 308 292 239 211 206 206 205 209 209 205 203 202 201 199 197 196 194
266 268 272 274 277 282 287 288 290 290 291 291 290 288 286 285 283 281 278 274 272 269 264 261 258 251 247 248 251 257 265 270 272 274 277 282 285 284 285 285 282 279 277 273 271 269 267 266 265 263 260 257 252 245 238 233 227 230 241 247 252 260 265 270 275 280 285 290 293 293 265 226 208 204 199 200 204 203 201 202 202 201 200 199 198
270 274 278 282 286 290 292 292 292 291 291 292 289 286 282 280 280 279 275 270 268 266 261 260 256 247 243 244 248 254 260 264 267 271 275 280 282 283 282 280 280 278 276 273 270 269 267 264 262 261 258 256 252 246 241 235 229 228 236 243 248 254 259 264 268 272 275 280 282 283 275 251 220 208 200 194 197 196 195 200 202 201 200 200 199
276 282 287 290 292 294 294 292 291 289 289 288 284 278 275 275 275 273 268 264 262 263 262 262 256 245 240 243 246 251 257 263 267 269 273 277 279 280 280 280 280 277 275 274 272 269 267 264 262 260 258 254 251 248 243 238 232 229 233 239 244 249 254 258 262 266 268 271 274 273 269 260 239 218 206 197 193 192 189 195 200 201 200 200 199
282 286 290 292 294 294 292 291 289 286 285 282 276 271 270 271 269 266 263 260 259 262 263 263 257 246 240 241 243 249 256 261 266 271 273 274 276 278 280 281 281 279 275 273 272 270 268 265 262 260 257 254 250 248 245 241 235 232 232 237 242 246 250 253 256 260 264 266 268 270 266 259 250 232 217 205 198 191 188 190 196 200 200 200 200
284 287 290 292 292 291 290 290 289 287 283 278 274 270 269 267 264 261 259 258 257 259 258 257 253 242 235 237 244 251 255 258 261 266 268 271 275 279 282 284 284 281 277 274 272 271 269 266 262 259 256 253 249 246 246 244 239 235 234 235 240 244 247 250 252 254 258 262 264 267 266 260 252 241 229 216 206 199 191 189 192 197 200 200 200
286 289 291 291 291 292 292 291 289 288 283 277 275 269 265 262 259 258 257 257 257 256 253 250 244 236 235 242 248 252 254 256 259 262 266 271 276 280 285 287 286 283 280 276 273 271 268 266 262 258 255 251 247 243 244 245 242 239 238 237 238 243 246 248 249 250 252 256 261 263 266 263 256 247 238 225 215 208 200 193 191 194 199 201 200
289 291 291 290 292 295 294 290 289 285 277 276 274 264 262 260 256 256 256 257 258 257 252 246 241 237 242 247 250 252 254 257 260 264 269 275 278 282 285 286 285 283 280 275 271 269 267 266 262 258 254 251 247 242 241 243 244 242 241 241 240 242 245 247 248 248 248 251 255 258 261 263 259 253 245 236 224 217 211 203 197 194 197 201 203
289 290 289 290 292 293 290 289 289 280 272 275 269 262 265 262 255 255 257 261 260 259 255 246 241 241 245 246 248 251 255 259 263 268 274 277 279 281 283 283 283 281 278 272 268 267 265 265 263 259 256 253 249 245 242 242 244 244 244 244 244 244 244 247 248 249 248 248 249 252 255 257 259 256 250 244 234 226 220 214 207 201 198 201 205
290 290 291 292 290 287 284 284 283 273 270 272 265 262 264 259 256 256 255 258 257 255 250 242 239 241 243 244 246 250 256 262 268 275 277 278 279 280 282 282 282 280 277 273 268 265 263 263 262 259 256 253 250 247 245 243 244 246 246 246 247 247 246 247 250 251 250 249 248 249 250 251 253 254 253 250 244 235 228 223 218 212 205 202 205
291 293 295 293 289 284 279 275 271 266 264 265 260 256 253 252 255 252 247 246 246 242 238 238 239 239 241 243 248 255 261 268 277 282 281 280 282 283 283 281 280 278 276 274 270 265 262 261 260 258 254 250 248 246 245 244 244 247 248 249 248 249 250 250 251 253 253 252 251 250 250 248 248 250 251 251 250 245 237 231 226 222 216 209 207
293 296 295 292 288 281 276 272 266 258 253 253 248 242 244 249 248 238 231 234 235 233 235 239 240 241 245 250 258 264 269 278 284 285 283 283 283 282 281 280 278 276 275 273 271 266 262 260 258 257 254 250 246 243 243 243 244 246 248 249 249 250 252 253 253 254 255 255 253 251 252 251 249 247 247 249 251 250 246 240 234 229 224 220 214
294 296 294 292 285 276 272 267 257 247 242 237 231 233 236 233 227 221 222 235 241 239 241 244 246 249 254 260 265 269 276 283 284 282 281 281 281 279 277 276 274 273 272 272 270 267 263 259 257 256 254 250 246 242 241 241 242 244 247 250 251 252 253 254 254 255 255 256 254 253 254 252 251 250 247 247 248 250 251 247 242 236 231 227 224
294 294 295 295 279 267 259 243 243 240 229 218 213 222 225 220 227 238 244 250 254 251 251 253 253 255 258 263 265 271 279 281 279 278 278 278 278 280 280 279 276 275 274 273 272 268 264 260 258 256 253 250 246 243 240 239 240 243 246 249 252 253 254 255 255 255 255 256 255 255 256 254 252 252 250 247 246 247 249 249 247 243 237 233 230
292 289 292 292 273 264 253 235 228 205 195 203 213 218 223 234 246 253 255 256 258 256 255 253 253 255 258 261 266 274 279 279 277 276 276 276 276 278 279 277 277 277 277 275 272 268 264 260 258 256 254 252 248 245 242 239 239 241 244 247 250 252 253 253 254 255 255 255 255 256 257 256 254 253 252 250 247 245 245 247 248 247 243 237 234
287 279 271 272 273 269 260 253 222 205 200 210 223 232 241 251 255 255 256 257 256 254 253 252 253 256 258 263 272 278 279 277 276 275 275 277 279 279 277 275 275 276 275 273 270 266 263 260 257 255 254 253 251 249 245 242 239 239 241 243 245 247 249 251 252 253 255 255 254 254 256 256 256 254 253 251 250 247 244 244 246 247 246 243 238
280 274 267 269 273 270 270 277 227 220 226 229 236 248 252 253 252 251 255 254 252 252 252 254 256 258 262 269 276 278 277 275 273 274 277 280 282 282 281 279 277 276 274 271 268 266 263 261 257 255 254 253 251 249 246 242 239 239 239 239 241 243 245 247 249 250 253 254 253 252 253 254 255 255 253 252 251 249 247 244 244 245 246 246 243
276 274 271 272 273 269 267 265 234 227 238 241 243 245 243 242 245 247 251 252 252 253 254 257 258 261 267 272 275 274 275 274 272 273 277 280 281 282 281 279 278 277 273 270 268 265 263 261 260 257 254 252 248 244 241 238 237 237 237 238 239 240 242 244 245 246 248 250 251 250 251 253 253 253 253 252 251 250 250 247 245 245 245 245 245
273 273 271 271 268 264 258 252 244 235 237 241 241 241 241 242 244 247 249 252 254 254 255 257 259 263 268 270 271 272 274 276 277 276 275 279 282 282 280 278 278 277 273 271 269 267 263 260 258 255 250 247 244 240 237 235 234 236 237 238 239 241 242 243 244 245 246 247 249 251 251 252 251 250 251 251 251 250 251 250 248 247 247 246 245
270 269 269 268 262 257 252 247 243 236 234 234 234 238 241 243 246 248 249 251 253 254 256 258 261 264 267 267 268 270 273 278 281 279 280 284 285 283 281 279 278 275 273 272 271 268 264 259 257 256 250 244 242 240 238 237 235 236 239 240 241 242 242 243 244 245 246 246 248 250 250 252 247 243 245 248 250 250 250 251 251 250 250 248 247
272 270 268 266 261 257 251 245 243 240 235 232 231 232 235 240 245 246 248 250 252 253 255 258 262 265 266 268 268 268 273 279 281 282 284 285 284 283 282 279 276 274 275 274 273 269 265 261 258 257 254 247 243 239 239 239 237 236 239 241 242 243 244 245 245 246 248 248 250 250 251 254 244 236 241 246 249 251 250 251 251 252 251 250 249
278 274 272 268 263 258 252 243 240 241 238 234 231 230 233 238 242 244 244 247 249 250 254 259 262 264 266 267 267 269 276 281 281 281 282 281 280 281 280 277 275 275 276 275 274 272 266 262 260 258 256 252 246 239 238 239 239 238 240 243 244 246 247 247 247 246 248 249 250 249 250 254 244 235 239 244 248 251 251 251 251 252 252 251 250
284 279 277 272 263 257 250 241 237 239 239 233 230 229 232 236 240 242 241 242 245 248 254 258 259 261 264 265 265 269 279 283 281 278 277 278 278 278 278 274 274 276 276 274 275 273 265 262 260 257 255 254 251 245 242 242 240 239 241 244 245 247 248 250 250 250 250 250 250 249 248 250 248 243 242 245 248 251 251 251 251 251 252 251 250
282 278 279 274 265 257 248 240 235 236 236 231 228 229 233 236 238 238 238 240 243 248 251 252 255 259 262 267 268 270 277 279 278 277 274 275 276 276 277 274 273 278 279 276 276 274 268 265 264 261 258 256 254 250 248 246 243 241 242 244 245 247 251 254 256 256 254 253 252 252 250 250 250 249 249 248 249 251 253 251 248 248 249 250 250
277 273 277 276 268 257 246 237 234 234 234 233 229 229 233 237 236 233 234 236 239 242 243 245 251 256 261 266 268 270 273 274 274 274 273 273 274 275 276 275 276 278 278 276 275 273 271 269 269 269 266 260 256 253 253 251 249 247 246 248 249 252 256 259 261 262 261 260 258 256 255 253 250 248 248 249 250 252 253 251 247 245 246 248 249
269 269 273 278 274 258 243 233 231 231 231 231 226 225 227 229 228 228 229 231 232 234 237 242 246 252 258 261 265 269 273 276 275 274 273 274 275 276 275 274 274 273 271 272 273 271 272 272 273 275 272 266 262 259 259 258 257 255 253 253 254 256 259 261 262 264 265 265 264 262 261 259 253 248 245 247 250 252 252 251 249 248 247 248 249
265 268 270 274 275 256 239 231 232 232 230 228 224 220 219 219 221 223 224 226 228 231 234 238 243 249 256 261 268 271 274 276 276 275 274 275 276 275 274 274 272 271 268 269 270 268 270 274 275 276 274 271 267 265 265 265 264 262 259 257 256 257 259 260 260 262 264 265 265 265 266 265 259 252 247 248 252 253 255 255 253 253 253 253 252
265 266 265 267 267 248 233 234 233 226 221 222 220 216 214 215 217 219 222 226 228 231 235 238 245 252 259 266 270 271 271 270 271 271 271 274 278 277 275 274 272 270 269 269 269 269 269 271 271 270 269 268 266 266 267 269 269 266 263 261 260 260 260 261 261 261 263 264 265 266 268 269 266 259 253 252 254 255 258 260 260 258 256 256 256
264 261 260 259 256 244 237 237 226 217 217 217 214 211 211 213 217 220 224 227 229 232 236 241 248 258 266 270 271 269 267 266 266 268 268 270 275 277 275 272 272 272 273 274 275 275 273 270 268 265 263 263 262 263 265 267 269 269 267 265 264 263 262 263 264 264 264 264 265 266 267 269 269 266 260 256 256 256 258 259 260 261 257 256 256
257 254 254 253 250 246 239 229 216 216 218 213 208 208 210 213 218 223 226 229 231 234 238 244 252 260 264 266 266 267 266 268 269 268 269 268 268 272 272 272 273 273 274 275 277 277 276 273 268 262 259 259 259 259 260 263 266 269 269 268 266 266 265 266 267 268 268 267 268 267 267 267 267 265 263 263 263 262 261 259 259 262 262 259 259
246 245 247 248 252 248 231 216 210 214 214 209 210 211 214 218 222 227 230 231 232 234 239 243 248 252 255 258 259 263 267 270 273 273 272 271 270 270 270 271 272 273 273 273 274 275 275 274 270 264 258 255 256 256 258 261 264 266 268 269 269 268 268 268 268 268 270 270 271 271 270 269 267 263 262 266 269 269 268 265 263 265 266 264 262
236 238 241 244 248 238 219 210 208 209 210 210 213 216 220 224 227 229 230 231 233 238 242 244 245 249 253 257 261 264 269 272 273 274 271 270 271 270 270 270 269 270 271 271 271 271 271 272 270 267 262 256 254 255 258 261 264 266 268 269 269 269 269 269 267 267 269 270 271 272 273 274 272 268 266 265 267 269 269 269 268 269 270 270 266
230 232 239 241 239 227 216 215 211 208 210 212 215 220 224 227 232 233 232 233 239 245 247 247 245 249 255 260 265 268 271 273 273 272 269 268 267 269 271 271 270 269 268 269 269 269 269 268 268 268 266 262 258 257 258 261 264 266 268 269 270 269 269 269 268 266 266 269 270 271 272 273 272 271 269 266 265 267 269 270 271 272 275 278 272
224 229 235 227 221 218 212 214 215 214 218 220 220 223 229 241 249 245 238 239 246 247 245 245 242 245 252 258 263 266 268 269 270 270 268 266 263 264 267 270 272 270 268 268 268 268 268 267 267 267 267 266 264 262 260 261 263 265 268 270 270 270 270 272 272 268 266 268 268 268 269 269 270 271 271 269 267 267 269 272 274 275 277 279 277
219 222 227 216 211 211 207 212 217 217 221 227 229 234 244 258 263 254 245 244 246 244 241 240 239 239 245 252 256 260 265 268 270 271 269 267 265 263 265 267 270 271 270 268 267 268 268 269 269 269 269 269 270 269 265 263 263 264 266 267 268 269 270 271 270 268 265 264 264 264 265 264 264 267 268 268 267 267 270 272 274 276 278 279 277
218 218 230 228 220 214 209 216 223 221 225 234 236 243 252 259 260 255 250 246 244 241 239 239 239 237 238 244 252 258 266 272 273 273 271 270 267 265 265 267 270 272 273 272 271 270 270 271 272 272 272 273 273 272 270 268 266 265 264 265 265 265 266 265 265 265 262 261 264 264 262 261 260 262 264 266 267 268 270 272 274 274 276 277 276
212 225 236 236 232 227 222 224 225 224 230 237 238 245 256 257 254 253 252 250 246 240 237 239 239 238 239 243 252 262 273 280 281 278 274 271 268 265 264 266 269 272 273 274 274 273 272 273 274 274 275 275 275 274 274 272 270 268 265 263 262 262 262 261 261 262 262 263 264 261 259 260 262 263 265 265 267 268 269 270 270 271 271 271 270
224 247 242 240 238 232 227 222 218 219 228 237 240 246 257 258 252 251 253 251 246 241 239 240 240 242 245 249 256 267 279 285 282 278 275 272 269 267 265 266 269 270 272 273 274 274 274 275 276 277 278 278 278 277 276 275 273 271 268 265 263 261 259 258 257 259 260 260 258 255 256 261 263 264 265 265 265 266 267 266 265 266 267 267 266
248 256 247 246 238 222 212 214 216 220 229 237 241 243 249 254 250 250 251 249 245 242 242 244 246 249 251 254 260 268 281 287 279 271 270 270 270 268 267 267 268 271 272 272 272 273 274 275 276 278 279 280 280 280 279 277 276 274 271 268 264 261 258 256 255 254 254 253 253 255 257 259 260 261 264 265 264 263 263 264 264 264 265 265 265
248 250 253 255 236 216 209 211 219 225 230 237 242 241 241 245 248 248 247 246 244 243 244 246 248 251 252 255 260 265 279 291 281 268 266 267 268 268 268 268 269 271 273 273 272 271 271 273 274 276 279 281 282 282 282 281 279 277 274 271 268 264 261 257 255 254 252 250 251 253 255 257 258 260 262 263 263 262 261 262 263 264 264 263 264
Height
5864 5864 5863 5863 5863 5863 5862 5862 5862 5862 5862 5862 5862 5862 5862 5863 5863 5862 5862 5861 5860 5860 5859 5859 5858 5857 5857 5857 5857 5857 5856 5856 5856 5855 5855 5855 5854 5854 5854 5854 5854 5853 5853 5853 5852 5852 5852 5852 5852 5851 5851 5851 5851 5851 5851 5850 5850 5850 5850 5850 5850 5850 5849 5850 5850 5850 5850 5850 5851 5851 5852 5852 5852 5852 5852 5852 5852 5853 5853 5854 5854 5854 5855 5855 5855
5862 5862 5861 5861 5861 5861 5861 5861 5861 5861 5861 5860 5860 5860 5861 5861 5862 5861 5861 5860 5859 5859 5858 5858 5857 5857 5856 5856 5856 5856 5855 5855 5855 5854 5854 5854 5853 5853 5854 5853 5853 5853 5852 5852 5852 5851 5851 5851 5851 5850 5850 5850 5850 5850 5850 5850 5850 5850 5850 5850 5850 5849 5849 5849 5849 5850 5850 5850 5851 5851 5851 5852 5852 5852 5852 5852 5852 5853 5853 5853 5854 5854 5855 5855 5855
5859 5860 5860 5860 5859 5859 5859 5859 5859 5859 5859 5859 5859 5859 5859 5860 5860 5860 5860 5859 5858 5857 5857 5856 5856 5855 5855 5855 5855 5854 5854 5854 5853 5853 5853 5853 5852 5852 5853 5852 5852 5852 5851 5851 5851 5850 5850 5850 5850 5849 5849 5849 5850 5850 5850 5849 5849 5849 5850 5850 5849 5849 5849 5849 5849 5849 5850 5850 5850 5851 5851 5851 5852 5852 5852 5852 5852 5853 5853 5853 5854 5854 5855 5855 5855
5858 5858 5858 5858 5858 5858 5858 5858 5858 5857 5857 5857 5857 5858 5858 5858 5859 5859 5858 5858 5857 5856 5855 5855 5855 5854 5854 5854 5854 5853 5853 5853 5852 5852 5852 5852 5852 5851 5851 5851 5851 5851 5850 5850 5850 5849 5849 5849 5848 5848 5848 5849 5849 5849 5849 5849 5849 5849 5849 5849 5849 5848 5848 5848 5849 5849 5849 5850 5850 5850 5851 5851 5851 5852 5852 5852 5853 5853 5853 5853 5854 5854 5855 5855 5856
5856 5856 5856 5856 5856 5856 5856 5856 5856 5855 5855 5856 5856 5856 5857 5857 5857 5857 5857 5856 5855 5855 5854 5854 5853 5853 5853 5853 5852 5852 5852 5851 5851 5851 5851 5851 5851 5850 5850 5850 5850 5850 5849 5849 5849 5848 5848 5847 5847 5847 5847 5848 5848 5848 5848 5848 5848 5848 5849 5848 5848 5848 5848 5848 5848 5849 5849 5849 5850 5850 5851 5851 5851 5852 5852 5852 5853 5853 5853 5854 5854 5854 5855 5855 5856
5854 5854 5854 5854 5854 5854 5854 5854 5854 5854 5854 5854 5855 5855 5855 5855 5856 5855 5855 5854 5853 5853 5853 5852 5852 5852 5851 5851 5851 5850 5850 5850 5850 5850 5850 5850 5850 5850 5849 5849 5849 5849 5848 5848 5848 5847 5847 5847 5846 5846 5847 5847 5847 5847 5847 5847 5848 5848 5848 5848 5848 5848 5848 5848 5848 5848 5849 5849 5850 5850 5850 5851 5851 5852 5852 5852 5853 5853 5853 5854 5854 5855 5855 5855 5856
5852 5852 5852 5852 5852 5852 5852 5852 5852 5852 5853 5853 5853 5854 5854 5854 5854 5854 5853 5852 5852 5851 5851 5851 5850 5850 5850 5849 5849 5849 5849 5849 5849 5849 5849 5849 5849 5849 5849 5848 5848 5848 5848 5847 5847 5846 5846 5846 5846 5845 5846 5846 5846 5846 5846 5847 5847 5847 5847 5847 5847 5847 5847 5847 5848 5848 5849 5849 5849 5850 5850 5851 5851 5851 5852 5852 5853 5853 5853 5854 5854 5855 5855 5855 5856
5850 5850 5850 5850 5850 5850 5850 5850 5850 5851 5852 5852 5852 5852 5852 5852 5852 5852 5851 5851 5850 5850 5850 5849 5848 5848 5848 5848 5848 5849 5849 5848 5848 5848 5848 5848 5848 5848 5848 5848 5847 5847 5847 5846 5846 5845 5845 5845 5845 5845 5845 5845 5845 5845 5846 5846 5846 5846 5846 5846 5846 5847 5847 5847 5847 5848 5848 5849 5849 5849 5850 5850 5851 5851 5852 5852 5853 5853 5853 5854 5854 5855 5855 5855 5856
5848 5848 5848 5848 5848 5848 5847 5848 5849 5850 5850 5850 5850 5850 5850 5850 5850 5850 5849 5849 5848 5848 5848 5847 5847 5846 5846 5847 5848 5848 5848 5847 5847 5847 5847 5847 5847 5847 5847 5847 5846 5846 5846 5845 5845 5844 5844 5844 5844 5844 5844 5844 5844 5844 5845 5845 5846 5845 5845 5846 5846 5846 5846 5847 5847 5847 5848 5848 5848 5849 5850 5850 5851 5851 5852 5852 5852 5853 5853 5854 5854 5854 5855 5855 5856
5846 5846 5846 5846 5845 5845 5845 5846 5847 5848 5848 5848 5848 5848 5848 5848 5847 5847 5847 5846 5846 5845 5845 5845 5845 5845 5845 5846 5847 5847 5846 5845 5845 5845 5845 5845 5845 5845 5845 5845 5845 5845 5844 5844 5844 5843 5843 5843 5843 5843 5843 5843 5843 5844 5844 5844 5845 5845 5845 5845 5845 5845 5845 5846 5846 5847 5847 5847 5848 5848 5849 5850 5850 5851 5851 5852 5852 5853 5853 5854 5854 5854 5855 5855 5855
5844 5844 5843 5843 5843 5843 5844 5845 5845 5845 5846 5846 5846 5845 5845 5844 5844 5844 5844 5844 5843 5843 5842 5842 5843 5843 5844 5845 5845 5845 5844 5843 5842 5842 5843 5844 5844 5844 5844 5844 5844 5843 5843 5842 5842 5842 5842 5842 5842 5842 5842 5842 5842 5843 5843 5844 5844 5844 5844 5844 5844 5845 5845 5845 5846 5846 5846 5847 5847 5848 5849 5849 5850 5850 5851 5851 5852 5852 5853 5853 5854 5854 5854 5855 5855
5841 5841 5841 5840 5841 5842 5842 5843 5843 5843 5843 5843 5842 5842 5841 5841 5841 5841 5841 5841 5840 5840 5840 5840 5841 5841 5842 5842 5843 5843 5842 5841 5840 5840 5841 5842 5842 5842 5842 5842 5842 5841 5841 5841 5841 5841 5841 5841 5840 5840 5841 5841 5841 5841 5842 5843 5843 5843 5843 5843 5844 5844 5844 5844 5845 5845 5846 5846 5847 5847 5848 5849 5849 5850 5850 5851 5851 5852 5852 5853 5853 5854 5854 5854 5855
5839 5839 5839 5839 5840 5841 5841 5841 5841 5840 5840 5840 5839 5838 5838 5838 5838 5838 5838 5838 5837 5837 5837 5837 5838 5838 5839 5840 5841 5841 5841 5839 5839 5839 5839 5840 5840 5840 5840 5840 5840 5839 5839 5839 5839 5839 5839 5839 5839 5839 5839 5840 5840 5840 5841 5841 5842 5842 5842 5842 5843 5843 5843 5844 5844 5844 5845 5845 5846 5846 5847 5848 5849 5849 5850 5850 5851 5851 5852 5852 5853 5853 5854 5854 5854
5837 5837 5838 5838 5838 5839 5839 5838 5838 5837 5837 5837 5836 5835 5835 5835 5835 5835 5835 5835 5835 5835 5835 5835 5835 5835 5836 5837 5838 5839 5839 5837 5838 5838 5837 5838 5838 5838 5838 5838 5838 5838 5838 5838 5838 5838 5838 5838 5838 5838 5838 5838 5838 5839 5839 5840 5841 5841 5841 5841 5842 5842 5843 5843 5843 5844 5844 5844 5845 5846 5847 5847 5848 5849 5849 5850 5850 5851 5851 5852 5852 5853 5853 5854 5854
5835 5836 5836 5836 5836 5836 5836 5835 5835 5834 5834 5833 5833 5832 5831 5831 5831 5831 5831 5832 5832 5832 5832 5832 5832 5832 5833 5834 5836 5837 5836 5836 5836 5837 5836 5836 5836 5836 5836 5836 5836 5837 5837 5837 5837 5837 5837 5837 5837 5837 5837 5837 5837 5837 5837 5838 5839 5840 5840 5840 5841 5841 5842 5842 5843 5843 5843 5844 5844 5845 5846 5847 5847 5848 5849 5849 5850 5850 5851 5851 5852 5852 5853 5853 5854
5834 5835 5834 5834 5833 5833 5832 5832 5831 5830 5830 5830 5829 5829 5828 5828 5828 5828 5828 5829 5829 5830 5830 5830 5830 5831 5831 5832 5834 5835 5835 5834 5834 5834 5834 5834 5834 5834 5834 5834 5835 5835 5835 5835 5836 5836 5835 5835 5835 5836 5836 5836 5836 5836 5836 5837 5838 5839 5839 5839 5840 5840 5840 5841 5842 5842 5842 5843 5843 5844 5845 5846 5847 5847 5848 5849 5849 5850 5850 5851 5851 5852 5852 5852 5853
5831 5832 5832 5831 5830 5829 5829 5828 5827 5826 5826 5825 5825 5825 5825 5825 5825 5825 5825 5826 5827 5827 5827 5827 5828 5828 5829 5830 5832 5833 5833 5833 5832 5832 5832 5832 5832 5832 5833 5833 5833 5834 5834 5834 5834 5834 5834 5834 5834 5834 5835 5835 5835 5835 5834 5835 5836 5837 5838 5838 5839 5839 5839 5840 5841 5841 5842 5842 5842 5843 5844 5845 5846 5847 5847 5848 5849 5849 5850 5850 5850 5851 5851 5852 5852
5829 5829 5829 5828 5827 5827 5826 5825 5824 5823 5822 5822 5821 5821 5821 5822 5823 5823 5823 5823 5824 5824 5824 5824 5824 5825 5827 5829 5830 5831 5831 5831 5831 5831 5830 5830 5831 5831 5831 5832 5832 5832 5832 5832 5833 5833 5832 5833 5833 5833 5833 5833 5833 5833 5833 5833 5834 5835 5836 5837 5838 5838 5838 5839 5839 5840 5841 5841 5841 5842 5843 5844 5845 5846 5846 5847 5848 5848 5849 5849 5850 5850 5850 5851 5851
5827 5826 5826 5825 5824 5824 5823 5822 5822 5820 5819 5820 5819 5818 5819 5819 5820 5820 5820 5821 5821 5822 5822 5821 5822 5824 5826 5827 5828 5829 5829 5829 5829 5829 5829 5829 5829 5829 5829 5830 5830 5830 5830 5830 5831 5831 5831 5831 5831 5831 5831 5832 5832 5832 5832 5832 5832 5833 5835 5836 5836 5837 5837 5837 5838 5839 5839 5840 5840 5841 5842 5842 5843 5844 5845 5846 5847 5847 5848 5848 5849 5849 5850 5850 5851
5824 5824 5823 5823 5822 5822 5821 5819 5819 5817 5817 5818 5818 5817 5818 5817 5818 5818 5818 5818 5819 5820 5820 5820 5822 5824 5825 5826 5827 5827 5827 5828 5827 5827 5827 5827 5827 5827 5828 5828 5828 5828 5828 5828 5829 5829 5829 5829 5830 5830 5830 5830 5831 5831 5831 5831 5831 5832 5833 5834 5835 5835 5836 5836 5836 5837 5838 5839 5839 5840 5841 5841 5842 5843 5844 5845 5845 5846 5847 5847 5848 5848 5849 5849 5850
5821 5821 5820 5820 5820 5821 5820 5817 5816 5816 5815 5816 5817 5817 5816 5815 5816 5816 5816 5816 5817 5818 5818 5820 5821 5822 5823 5824 5825 5825 5825 5826 5825 5825 5826 5826 5826 5826 5826 5826 5826 5826 5826 5826 5827 5827 5827 5827 5827 5828 5828 5829 5829 5830 5830 5830 5830 5830 5831 5832 5833 5833 5834 5835 5835 5836 5836 5837 5838 5839 5839 5840 5841 5841 5842 5843 5844 5845 5846 5846 5847 5847 5848 5848 5849
5817 5817 5816 5816 5816 5816 5817 5815 5815 5815 5814 5815 5816 5815 5813 5813 5814 5815 5815 5815 5815 5816 5817 5818 5819 5820 5821 5822 5823 5823 5823 5823 5823 5823 5823 5824 5824 5824 5824 5823 5823 5823 5823 5824 5824 5825 5825 5825 5826 5826 5826 5827 5827 5828 5828 5828 5829 5829 5829 5830 5831 5831 5832 5833 5834 5834 5835 5835 5836 5837 5838 5838 5839 5840 5841 5842 5843 5843 5844 5845 5846 5846 5847 5847 5848
5814 5814 5813 5812 5812 5811 5811 5811 5812 5812 5812 5814 5814 5813 5813 5813 5812 5813 5815 5814 5814 5814 5815 5816 5817 5818 5819 5820 5821 5821 5821 5821 5821 5821 5821 5822 5822 5821 5821 5821 5820 5820 5821 5821 5822 5823 5823 5823 5824 5824 5824 5825 5825 5826 5826 5827 5827 5827 5827 5828 5829 5830 5831 5831 5832 5833 5833 5834 5834 5835 5836 5837 5837 5838 5839 5840 5841 5842 5843 5844 5844 5845 5846 5846 5847
5812 5811 5810 5809 5807 5806 5807 5808 5808 5809 5809 5812 5813 5811 5812 5813 5812 5812 5814 5814 5813 5813 5814 5815 5816 5817 5817 5818 5819 5819 5819 5819 5820 5820 5819 5820 5819 5818 5818 5818 5817 5818 5818 5819 5820 5820 5821 5822 5822 5822 5822 5823 5823 5824 5825 5825 5825 5826 5825 5826 5827 5828 5829 5830 5830 5831 5832 5832 5833 5833 5834 5835 5835 5837 5838 5839 5840 5841 5841 5842 5843 5844 5844 5845 5846
5810 5809 5808 5806 5804 5803 5805 5806 5806 5807 5807 5810 5813 5812 5812 5813 5812 5812 5812 5812 5812 5812 5813 5814 5814 5815 5816 5816 5817 5817 5818 5818 5818 5818 5817 5817 5817 5816 5816 5816 5815 5815 5816 5817 5817 5818 5819 5820 5820 5821 5821 5821 5822 5822 5823 5823 5823 5824 5824 5824 5825 5826 5827 5828 5828 5829 5830 5830 5831 5832 5832 5833 5834 5834 5836 5837 5838 5839 5840 5841 5841 5842 5843 5844 5844
5808 5807 5806 5805 5804 5804 5805 5806 5806 5807 5807 5809 5812 5812 5812 5813 5813 5812 5811 5811 5811 5812 5812 5812 5813 5813 5814 5815 5816 5816 5816 5816 5816 5816 5815 5815 5815 5815 5815 5815 5814 5813 5814 5814 5815 5816 5817 5817 5818 5819 5819 5820 5820 5821 5821 5822 5822 5822 5822 5823 5823 5824 5824 5825 5826 5826 5827 5828 5829 5830 5830 5831 5832 5832 5834 5835 5836 5837 5838 5839 5839 5840 5841 5842 5842
5807 5805 5805 5804 5804 5805 5805 5806 5806 5807 5808 5809 5810 5809 5810 5811 5811 5810 5810 5810 5810 5810 5810 5811 5811 5812 5813 5814 5814 5814 5814 5814 5813 5813 5813 5813 5813 5814 5814 5813 5813 5812 5812 5812 5812 5813 5814 5815 5816 5817 5817 5818 5819 5820 5820 5821 5821 5820 5820 5820 5821 5821 5822 5822 5823 5824 5825 5825 5827 5828 5829 5829 5830 5830 5831 5832 5834 5835 5836 5837 5838 5838 5839 5840 5841
5805 5804 5804 5803 5803 5803 5804 5805 5805 5806 5807 5807 5808 5807 5807 5807 5808 5808 5809 5809 5808 5808 5809 5809 5810 5811 5812 5812 5812 5812 5812 5811 5811 5811 5811 5811 5811 5811 5811 5811 5811 5810 5810 5810 5810 5811 5811 5812 5813 5814 5815 5816 5817 5818 5819 5819 5819 5819 5818 5818 5818 5819 5819 5820 5821 5821 5822 5823 5824 5826 5827 5827 5828 5828 5829 5830 5832 5833 5834 5835 5836 5836 5837 5838 5838
5803 5802 5802 5802 5801 5801 5802 5803 5804 5806 5805 5802 5803 5804 5805 5805 5805 5806 5806 5806 5807 5807 5808 5808 5809 5810 5810 5810 5810 5810 5810 5809 5808 5809 5809 5808 5808 5808 5809 5809 5809 5808 5808 5808 5809 5809 5809 5810 5811 5812 5813 5814 5814 5815 5816 5817 5817 5817 5817 5817 5816 5817 5817 5818 5818 5819 5819 5820 5821 5823 5825 5825 5826 5826 5827 5828 5829 5830 5832 5833 5834 5834 5835 5836 5836
5801 5801 5801 5800 5800 5800 5800 5801 5802 5804 5803 5801 5800 5800 5802 5802 5803 5803 5804 5804 5805 5806 5806 5807 5808 5808 5808 5808 5808 5809 5808 5807 5807 5808 5807 5807 5807 5807 5807 5807 5807 5807 5807 5807 5807 5807 5807 5808 5809 5810 5810 5811 5811 5812 5813 5814 5815 5815 5815 5815 5815 5815 5815 5816 5816 5817 5817 5818 5819 5821 5822 5823 5823 5824 5825 5826 5827 5828 5829 5830 5832 5832 5833 5834 5834
5800 5799 5799 5798 5798 5798 5798 5799 5799 5801 5801 5801 5799 5798 5799 5799 5800 5801 5801 5802 5804 5804 5805 5806 5806 5806 5806 5807 5807 5807 5806 5805 5806 5807 5806 5806 5806 5805 5805 5806 5806 5805 5805 5805 5806 5806 5806 5806 5807 5807 5808 5809 5809 5810 5811 5812 5813 5813 5813 5813 5813 5813 5814 5814 5815 5815 5815 5816 5817 5818 5820 5820 5820 5821 5822 5823 5824 5826 5827 5828 5829 5830 5831 5832 5833
5798 5797 5797 5797 5796 5796 5796 5796 5796 5796 5797 5797 5797 5796 5796 5797 5798 5799 5800 5801 5802 5803 5804 5804 5804 5804 5805 5805 5805 5805 5804 5804 5806 5805 5804 5805 5805 5804 5804 5804 5804 5804 5804 5804 5804 5805 5804 5804 5805 5805 5806 5807 5807 5808 5809 5810 5811 5811 5812 5812 5812 5812 5812 5813 5813 5813 5814 5815 5816 5817 5818 5818 5818 5819 5820 5821 5822 5823 5825 5826 5827 5827 5829 5830 5831
5796 5796 5795 5795 5795 5794 5793 5793 5793 5793 5793 5793 5793 5794 5794 5795 5796 5797 5798 5799 5800 5801 5802 5802 5802 5803 5803 5803 5804 5803 5802 5803 5804 5804 5803 5804 5804 5803 5803 5803 5803 5803 5803 5803 5803 5803 5803 5803 5803 5803 5804 5805 5806 5807 5808 5808 5809 5809 5810 5810 5810 5810 5810 5811 5811 5812 5812 5812 5814 5815 5816 5816 5816 5817 5818 5819 5820 5821 5822 5823 5824 5825 5826 5827 5828
5794 5794 5793 5793 5792 5792 5791 5791 5790 5790 5790 5790 5791 5792 5792 5793 5795 5796 5797 5798 5799 5800 5800 5801 5801 5801 5801 5802 5802 5801 5800 5801 5802 5802 5803 5803 5802 5802 5802 5802 5802 5802 5802 5802 5802 5802 5801 5801 5801 5802 5802 5803 5804 5805 5806 5807 5807 5807 5808 5809 5809 5809 5809 5809 5809 5810 5810 5810 5812 5813 5813 5813 5814 5815 5816 5817 5818 5818 5819 5820 5821 5822 5822 5824 5825
5793 5793 5792 5791 5790 5790 5789 5788 5788 5788 5788 5789 5789 5790 5792 5793 5794 5795 5796 5797 5798 5798 5799 5799 5799 5800 5800 5800 5800 5800 5800 5800 5800 5801 5801 5801 5801 5801 5801 5801 5801 5801 5800 5800 5800 5800 5801 5801 5801 5800 5801 5803 5803 5804 5805 5805 5806 5806 5807 5808 5808 5808 5807 5808 5808 5808 5809 5809 5810 5810 5811 5812 5812 5813 5814 5814 5815 5816 5816 5816 5817 5818 5819 5820 5821
5792 5791 5791 5790 5789 5787 5786 5786 5787 5787 5787 5788 5789 5790 5791 5792 5793 5794 5795 5795 5796 5797 5797 5798 5798 5798 5798 5799 5799 5799 5799 5799 5800 5800 5800 5800 5800 5799 5800 5800 5800 5800 5799 5799 5799 5800 5800 5800 5800 5800 5801 5802 5802 5803 5804 5804 5805 5806 5807 5807 5807 5807 5807 5807 5806 5806 5807 5807 5808 5808 5809 5810 5811 5811 5812 5812 5812 5813 5813 5813 5813 5814 5815 5816 5817
5791 5790 5790 5789 5788 5785 5783 5785 5786 5786 5786 5787 5787 5788 5789 5790 5791 5792 5793 5794 5795 5795 5796 5796 5796 5796 5797 5797 5797 5798 5798 5798 5798 5798 5798 5798 5798 5798 5798 5799 5799 5798 5798 5798 5798 5799 5799 5799 5799 5799 5800 5801 5801 5802 5803 5804 5805 5805 5805 5806 5806 5806 5806 5806 5806 5805 5805 5805 5806 5806 5807 5808 5808 5809 5810 5810 5810 5810 5809 5810 5810 5810 5812 5813 5814
5789 5789 5788 5787 5787 5783 5781 5783 5784 5783 5784 5785 5785 5786 5787 5788 5789 5790 5791 5792 5793 5794 5794 5794 5794 5795 5795 5796 5796 5796 5796 5796 5796 5796 5796 5797 5797 5797 5797 5797 5797 5797 5797 5797 5797 5797 5797 5797 5798 5798 5799 5799 5800 5801 5803 5803 5803 5804 5804 5804 5804 5804 5805 5805 5805 5805 5805 5805 5804 5804 5805 5806 5807 5807 5808 5808 5808 5807 5806 5807 5808 5808 5810 5811 5813
5787 5787 5787 5786 5785 5783 5781 5782 5782 5782 5782 5782 5783 5784 5785 5786 5787 5789 5790 5791 5792 5792 5793 5793 5793 5793 5794 5794 5794 5794 5794 5794 5795 5794 5795 5795 5795 5795 5796 5796 5796 5796 5796 5796 5796 5795 5795 5796 5797 5797 5798 5798 5799 5800 5801 5801 5801 5802 5802 5802 5802 5802 5803 5803 5803 5803 5803 5803 5803 5803 5803 5804 5805 5805 5806 5806 5806 5805 5805 5806 5807 5807 5809 5810 5811
5785 5784 5784 5784 5783 5782 5781 5780 5780 5780 5780 5781 5781 5783 5784 5785 5786 5788 5790 5791 5791 5792 5792 5792 5792 5792 5792 5792 5793 5793 5793 5793 5793 5793 5793 5793 5793 5793 5794 5794 5795 5795 5795 5794 5794 5794 5794 5795 5796 5796 5797 5797 5798 5799 5799 5799 5799 5800 5800 5800 5800 5800 5801 5801 5801 5801 5801 5801 5801 5802 5802 5802 5803 5804 5803 5803 5803 5803 5803 5803 5805 5805 5806 5807 5808
5782 5781 5781 5781 5780 5780 5780 5778 5777 5777 5778 5779 5780 5781 5782 5784 5785 5787 5788 5789 5790 5790 5791 5791 5791 5791 5791 5791 5791 5791 5791 5791 5791 5791 5791 5792 5792 5792 5792 5792 5792 5793 5793 5793 5793 5793 5793 5794 5795 5795 5796 5796 5797 5797 5798 5798 5798 5798 5798 5799 5799 5799 5799 5799 5800 5799 5799 5799 5799 5799 5800 5801 5801 5802 5801 5800 5800 5801 5801 5801 5802 5802 5803 5804 5805
5778 5779 5779 5779 5779 5778 5776 5776 5775 5774 5775 5777 5778 5780 5781 5783 5785 5786 5787 5788 5788 5789 5789 5789 5790 5790 5790 5790 5790 5790 5790 5790 5790 5790 5790 5790 5790 5790 5790 5790 5790 5791 5791 5791 5792 5792 5792 5793 5794 5794 5795 5796 5796 5796 5796 5796 5797 5797 5797 5798 5798 5798 5798 5798 5798 5798 5798 5797 5797 5797 5798 5799 5799 5800 5799 5798 5798 5798 5798 5798 5799 5800 5801 5801 5801
5775 5776 5777 5777 5777 5776 5775 5774 5772 5771 5774 5776 5778 5780 5781 5782 5784 5785 5785 5786 5787 5788 5788 5788 5788 5788 5788 5788 5788 5788 5788 5788 5788 5788 5788 5788 5788 5788 5788 5788 5789 5789 5789 5790 5790 5790 5791 5792 5792 5793 5794 5794 5795 5795 5795 5795 5796 5796 5796 5796 5796 5797 5796 5796 5796 5796 5796 5796 5796 5796 5796 5797 5797 5798 5797 5797 5797 5796 5796 5796 5797 5798 5799 5799 5799
5772 5774 5775 5775 5776 5777 5777 5776 5773 5773 5775 5776 5777 5779 5780 5782 5782 5783 5784 5785 5786 5787 5787 5787 5787 5787 5787 5787 5787 5787 5787 5787 5787 5787 5787 5787 5787 5787 5787 5787 5787 5787 5788 5788 5788 5789 5789 5790 5791 5791 5792 5792 5793 5794 5794 5794 5794 5794 5794 5794 5795 5795 5795 5795 5795 5794 5794 5794 5794 5794 5795 5795 5796 5796 5795 5795 5795 5794 5794 5794 5795 5796 5796 5797 5797
5771 5772 5774 5775 5776 5776 5777 5776 5775 5777 5777 5776 5777 5779 5780 5780 5781 5782 5783 5784 5785 5785 5786 5786 5786 5786 5786 5786 5786 5786 5786 5786 5786 5786 5786 5785 5785 5785 5785 5785 5786 5786 5786 5787 5787 5787 5788 5788 5789 5790 5790 5790 5791 5791 5792 5792 5792 5792 5792 5792 5793 5793 5793 5793 5793 5792 5792 5793 5792 5793 5793 5794 5794 5794 5794 5794 5793 5793 5792 5792 5793 5794 5794 5794 5794
5771 5772 5773 5773 5773 5773 5773 5772 5773 5774 5775 5775 5777 5778 5779 5779 5780 5781 5782 5783 5783 5783 5784 5784 5784 5784 5784 5784 5785 5785 5785 5785 5785 5785 5785 5784 5784 5784 5784 5784 5784 5784 5785 5785 5785 5786 5786 5786 5787 5787 5787 5788 5788 5789 5789 5789 5789 5789 5790 5790 5790 5790 5791 5791 5790 5790 5790 5791 5791 5790 5791 5792 5793 5792 5792 5791 5791 5791 5791 5791 5791 5792 5792 5792 5792
5771 5772 5772 5771 5771 5770 5770 5770 5772 5773 5773 5774 5776 5776 5777 5778 5778 5779 5780 5781 5781 5781 5782 5782 5782 5782 5782 5782 5783 5783 5783 5783 5783 5783 5783 5783 5783 5782 5782 5782 5782 5782 5782 5783 5784 5784 5784 5784 5784 5785 5785 5785 5786 5786 5786 5787 5787 5787 5787 5788 5788 5788 5788 5788 5788 5787 5787 5789 5789 5788 5788 5789 5790 5789 5789 5788 5788 5789 5789 5789 5789 5790 5790 5790 5790
5769 5770 5770 5770 5769 5768 5768 5769 5770 5771 5772 5773 5774 5775 5776 5776 5777 5777 5778 5779 5779 5779 5780 5779 5779 5779 5780 5780 5781 5781 5781 5781 5781 5781 5781 5781 5781 5781 5780 5780 5780 5780 5780 5781 5781 5782 5782 5782 5782 5782 5783 5783 5783 5784 5784 5784 5784 5785 5785 5785 5785 5785 5786 5786 5785 5785 5785 5786 5786 5786 5786 5787 5787 5786 5786 5786 5786 5786 5786 5787 5787 5787 5787 5788 5788
5766 5766 5767 5767 5764 5763 5764 5766 5767 5769 5770 5771 5772 5773 5775 5775 5775 5775 5776 5777 5777 5777 5777 5777 5777 5777 5777 5778 5779 5780 5780 5780 5779 5779 5779 5779 5779 5779 5778 5778 5778 5778 5779 5779 5779 5779 5780 5780 5780 5780 5780 5780 5781 5781 5782 5782 5782 5782 5783 5783 5783 5783 5783 5783 5783 5783 5783 5783 5783 5783 5783 5783 5784 5784 5784 5784 5784 5784 5784 5784 5785 5785 5785 5786 5786
5762 5762 5763 5761 5759 5759 5761 5762 5764 5767 5768 5769 5770 5772 5773 5773 5773 5774 5774 5775 5775 5775 5775 5775 5775 5775 5776 5777 5777 5778 5778 5778 5778 5777 5777 5777 5777 5777 5777 5777 5777 5777 5777 5777 5777 5778 5778 5778 5778 5778 5778 5778 5779 5779 5779 5780 5780 5780 5780 5781 5781 5781 5781 5781 5781 5781 5780 5780 5780 5780 5780 5781 5781 5781 5781 5781 5781 5781 5781 5781 5782 5782 5782 5783 5783
5758 5759 5759 5758 5760 5761 5760 5759 5761 5764 5766 5767 5768 5770 5771 5771 5771 5772 5772 5773 5773 5773 5773 5773 5773 5774 5774 5775 5775 5776 5776 5776 5776 5775 5775 5775 5775 5776 5776 5776 5775 5775 5775 5775 5776 5776 5776 5776 5776 5776 5777 5777 5777 5777 5777 5778 5778 5778 5778 5778 5778 5779 5779 5778 5778 5778 5778 5778 5778 5778 5778 5778 5778 5778 5778 5778 5778 5778 5779 5779 5779 5779 5779 5780 5779